Dewpoint
21 12 11 14 16 14 13 12 13 15 19 17 17 18 19 22 30 28 32 32 31 32 31 28 28 30 31 28 31 31 34 35 37 40 42 44 41 40 39 39 38 38 39 40
19 12 14 15 16 15 12 14 14 15 17 19 18 19 26 28 27 28 30 31 29 30 29 27 26 27 28 27 28 29 30 32 35 38 41 41 40 40 39 38 38 37 37 38
16 14 16 17 15 11 12 14 14 14 18 20 20 18 22 26 27 28 30 32 29 28 27 26 25 25 25 26 26 27 27 29 32 35 38 39 40 38 37 37 36 36 35 36
16 17 16 17 13 12 13 15 15 16 18 17 21 15 17 24 25 25 27 30 29 26 26 25 24 23 23 24 24 23 25 26 28 30 32 34 35 34 34 35 33 33 32 33
21 16 14 15 13 13 14 16 18 17 18 21 20 16 17 25 22 23 25 25 26 27 26 24 23 23 23 23 22 22 22 23 25 27 28 27 27 30 30 30 31 30 30 31
18 19 18 14 14 16 17 19 24 25 24 19 21 17 17 18 20 20 23 24 24 27 25 23 22 24 22 20 18 19 19 20 22 23 25 24 23 23 23 23 26 27 27 28
25 21 17 15 16 18 18 19 15 13 17 14 19 17 17 20 21 20 21 23 23 25 22 20 19 22 21 18 17 17 17 17 18 19 20 21 21 20 20 21 22 22 23 23
21 19 18 15 14 15 17 18 16 12 13 14 18 16 16 23 21 20 20 22 22 22 20 18 18 19 20 18 16 15 14 14 14 15 16 18 19 18 18 19 20 21 21 22
21 22 19 15 15 17 18 16 17 15 17 18 18 19 20 23 22 20 19 20 20 20 19 18 19 19 19 17 15 14 14 14 14 13 13 14 15 16 16 16 17 18 19 17
21 23 24 17 17 17 17 17 18 19 16 15 17 17 17 21 21 22 22 21 20 20 19 18 19 18 18 17 14 12 12 10 11 12 12 13 14 14 15 17 16 16 17 18
21 23 24 25 21 20 18 18 15 17 18 17 16 17 22 21 22 22 23 25 26 24 21 20 18 18 15 15 13 10 10 9 9 10 11 12 13 12 13 13 14 15 15 16
23 26 26 27 22 16 18 20 16 16 21 19 18 20 22 22 23 23 23 24 25 25 25 23 18 16 13 12 12 10 8 8 9 10 11 12 16 20 27 24 15 14 13 14
25 28 26 25 20 23 21 18 18 21 19 21 21 20 22 23 24 24 25 28 27 26 23 21 17 15 11 9 9 9 9 9 12 18 26 24 19 13 12 18 12 14 13 13
30 29 29 25 26 29 29 29 25 25 25 24 23 23 24 24 25 24 31 29 25 23 21 19 15 13 10 8 7 9 12 19 23 24 19 25 19 18 20 12 12 13 13 12
25 26 27 30 30 30 30 29 29 28 27 26 26 26 27 28 26 30 30 26 23 21 19 18 15 11 9 7 8 16 18 16 14 15 14 20 25 20 16 15 11 11 12 11
24 27 28 27 29 29 28 29 29 28 28 27 27 27 28 29 32 32 30 20 19 17 18 17 15 11 8 7 14 21 24 25 25 24 24 25 24 23 20 18 11 10 10 10
29 27 27 27 28 28 26 27 28 28 28 28 26 28 31 31 31 30 21 16 16 17 16 16 12 9 13 20 23 23 24 25 24 25 24 24 23 23 18 12 9 8 8 9
29 26 29 28 28 22 23 27 27 27 26 27 31 32 31 30 29 17 16 18 20 18 19 22 23 23 22 21 22 23 24 24 24 23 23 23 22 19 13 9 8 7 8 8
35 31 30 27 26 25 26 26 24 23 23 31 31 30 31 31 30 18 19 20 19 18 21 23 23 23 23 23 24 24 24 24 23 22 21 21 16 10 8 7 7 7 8 9
29 35 31 29 24 21 23 24 24 25 22 30 31 30 29 28 25 25 19 18 17 20 22 22 23 22 22 22 23 23 22 22 21 20 20 14 9 8 7 7 7 8 10 10
27 30 28 28 28 30 28 23 25 24 24 31 31 29 28 26 27 26 18 17 19 21 21 22 21 20 20 21 22 21 20 19 20 17 11 8 7 7 7 8 10 10 10 11
27 27 26 28 27 24 27 29 28 29 31 30 27 25 24 24 25 24 19 20 20 21 20 20 19 19 20 20 19 18 17 16 11 7 6 6 7 8 8 10 10 11 11 11
28 29 30 30 28 32 32 33 29 29 28 25 24 24 23 23 25 22 20 20 19 19 19 20 19 19 20 19 18 12 8 6 6 5 6 7 9 10 10 9 10 11 11 10
32 35 33 33 33 33 31 27 27 26 25 24 23 22 23 22 22 20 19 18 18 18 18 18 17 17 16 14 6 5 5 5 5 6 7 9 10 12 11 11 12 12 11 11
35 37 34 32 34 28 25 25 24 23 23 22 20 19 20 21 19 18 18 17 17 17 17 17 15 9 6 5 4 4 4 6 6 7 9 10 9 11 12 11 11 12 12 13
36 34 31 31 27 28 25 24 24 21 20 21 18 16 17 18 17 17 16 16 16 15 13 6 5 4 5 4 4 5 7 7 7 7 8 8 11 12 11 10 10 12 14 13
Wind_Speed
5 12 7 5 3 2 5 5 8 6 3 11 5 17 23 13 17 13 12 11 8 5 4 2 4 6 10 13 15 16 17 17 15 13 10 7 13 14 14 14 17 16 15 14
4 6 3 5 4 2 5 4 5 11 5 6 9 20 5 4 4 13 14 11 9 5 5 1 3 6 8 11 14 16 17 15 15 11 9 5 4 8 12 13 17 20 20 20
3 1 3 1 4 11 7 3 6 8 11 2 12 4 2 2 1 4 7 8 9 10 8 4 1 4 6 9 12 14 15 16 16 16 12 10 6 8 10 16 16 18 18 18
0 2 4 3 2 3 7 4 9 15 7 5 6 6 3 3 5 8 10 12 11 10 8 6 3 1 4 5 8 12 13 15 15 16 14 16 12 10 10 9 10 13 17 18
3 3 5 3 3 0 7 13 13 4 2 3 2 1 4 2 4 7 12 16 15 15 12 10 7 4 1 3 6 8 11 14 14 15 15 13 13 9 9 10 11 14 15 17
2 1 0 2 7 3 10 6 3 3 2 2 1 3 6 4 2 1 3 10 16 15 13 9 7 6 3 2 4 6 9 11 12 14 14 15 15 14 15 15 14 13 12 12
7 1 1 2 6 2 12 8 5 2 2 4 3 4 11 4 2 2 6 9 15 15 14 13 12 10 6 3 3 5 7 9 10 12 14 13 12 12 13 13 12 12 12 12
7 6 2 3 1 4 4 3 3 6 5 8 3 7 3 4 6 6 6 9 9 14 14 15 15 13 10 7 6 6 6 6 7 9 10 10 11 11 11 11 11 12 11 12
6 5 1 1 0 1 2 2 2 3 2 3 5 7 7 5 9 8 6 4 12 17 16 16 14 15 13 10 8 7 7 6 5 6 8 9 9 11 11 11 11 11 11 11
2 7 2 1 0 1 1 3 2 1 4 8 6 10 13 4 1 4 5 10 14 13 15 15 17 16 15 13 10 9 7 7 7 6 5 6 6 10 9 10 12 11 10 10
4 4 4 1 3 2 1 2 2 1 4 5 8 8 5 6 5 3 3 7 8 9 14 17 18 17 16 14 12 10 8 7 7 7 7 7 5 11 8 9 9 10 9 11
2 2 7 11 2 3 4 4 4 3 4 7 3 19 12 7 7 2 4 7 6 9 11 12 18 19 17 16 13 11 9 8 7 8 8 7 7 8 8 9 8 8 9 9
7 4 9 7 2 3 4 7 6 9 6 17 11 11 3 8 5 6 6 6 9 11 14 7 13 20 18 16 14 13 11 10 9 9 7 9 9 6 5 7 7 7 7 7
8 7 12 17 15 6 17 18 14 16 13 17 32 35 26 25 22 2 3 8 10 11 14 8 12 15 16 14 14 13 12 10 7 6 5 5 4 8 7 5 7 7 8 8
6 10 16 22 22 22 27 30 25 24 29 25 42 25 31 13 5 1 6 10 13 14 14 11 8 9 12 14 13 12 10 8 6 6 5 7 3 3 7 9 7 6 8 8
5 11 3 12 20 26 32 31 31 28 29 27 33 39 8 7 3 6 6 9 11 13 15 15 6 13 16 16 14 10 8 5 4 4 2 2 3 3 5 7 7 6 7 8
7 8 2 15 2 11 23 26 25 11 10 13 20 7 4 6 10 10 9 7 9 12 11 10 6 8 11 12 10 9 6 5 3 2 2 2 4 5 6 7 6 7 7 7
12 10 7 14 7 16 8 5 5 15 6 2 8 5 4 5 7 2 6 5 7 8 9 9 9 11 11 11 10 8 5 4 2 2 2 3 4 6 7 5 6 8 7 8
25 16 11 9 15 20 20 9 5 7 5 3 8 2 2 6 5 2 4 3 5 5 6 7 8 8 8 7 4 3 4 3 1 3 3 4 7 7 6 6 6 7 7 8
4 19 17 8 8 13 2 2 2 4 15 8 1 2 5 9 15 4 1 3 5 4 3 5 6 6 6 4 3 3 3 3 4 4 5 6 6 6 6 5 7 6 7 7
5 6 27 27 18 10 1 5 1 3 5 4 2 1 3 3 2 2 5 4 4 4 4 5 6 6 5 4 4 4 3 5 4 5 6 5 5 7 4 6 5 6 7 7
11 10 11 9 12 14 2 3 4 2 4 3 1 1 3 5 6 5 5 4 4 4 5 5 5 4 4 4 4 4 2 2 4 4 5 6 6 6 6 5 5 6 6 7
10 12 5 12 7 1 3 1 4 3 4 1 3 3 3 6 4 5 4 6 6 5 4 4 3 2 1 2 1 3 3 2 4 5 5 6 6 5 5 6 6 5 7 9
5 5 6 3 7 7 7 4 5 5 4 4 2 3 4 2 2 5 7 7 5 4 3 2 2 1 2 2 4 3 3 3 4 5 6 6 5 5 6 6 5 6 9 11
9 9 10 9 4 3 3 3 4 5 4 5 3 3 4 2 4 6 6 5 5 2 0 1 2 4 1 4 5 5 4 3 5 5 5 4 6 7 7 7 8 8 9 10
2 2 5 4 4 3 1 5 3 3 3 3 2 3 5 3 4 5 4 3 3 2 2 2 3 5 5 6 6 4 3 4 5 6 4 8 7 6 9 10 12 11 11 12
Wind_Direction
25 55 35 352 357 253 275 273 291 292 241 329 280 280 292 277 220 212 197 197 198 195 167 103 34 13 8 15 16 13 8 5 12 8 13 15 33 27 29 29 23 25 25 21
43 38 306 310 1 309 328 319 313 305 282 316 307 302 342 41 230 204 200 205 206 199 200 200 20 14 16 14 15 13 11 3 12 11 5 39 32 35 37 29 26 21 22 23
104 334 312 352 354 356 333 293 314 299 317 285 328 311 300 1 39 198 217 205 203 212 219 222 297 11 10 23 19 20 15 8 12 14 22 27 33 41 29 24 22 19 20 23
344 336 348 343 9 18 323 218 308 308 344 319 12 306 301 262 254 236 227 214 216 213 210 208 212 348 18 26 34 34 30 24 21 19 36 45 49 45 17 23 19 19 20 19
344 339 0 347 323 333 264 316 309 291 192 338 330 325 270 313 276 261 241 226 226 217 212 210 201 189 89 45 43 41 41 38 34 37 39 46 48 42 27 19 21 20 20 19
293 347 108 281 307 272 311 317 60 63 90 319 229 47 278 226 223 294 340 221 223 220 215 209 195 177 163 92 62 51 50 44 44 50 49 55 56 47 43 33 25 18 17 17
330 285 325 347 330 29 6 7 344 333 344 263 235 284 249 235 228 259 276 251 223 211 207 201 194 193 189 166 120 77 60 52 48 54 54 54 55 58 58 43 36 25 20 17
352 334 2 359 48 318 350 57 56 303 295 293 308 236 238 214 209 246 269 278 230 219 216 210 202 195 191 177 151 127 106 88 66 60 56 53 51 53 49 46 37 29 20 12
351 287 289 324 13 352 342 56 170 257 269 287 262 278 266 218 253 246 254 251 231 230 224 218 207 197 185 177 173 160 142 124 107 90 76 62 58 51 47 42 41 33 19 19
179 288 249 274 88 48 186 153 293 57 306 294 277 281 248 191 213 216 259 252 252 247 239 223 209 199 187 178 167 160 153 138 123 105 100 81 62 59 38 40 33 31 22 9
169 208 273 308 213 223 230 239 206 185 188 266 299 258 231 204 170 148 315 346 331 284 257 235 213 199 187 175 167 159 150 132 115 104 91 78 56 53 27 35 26 19 18 11
188 204 266 270 280 250 224 220 171 199 262 243 242 274 281 213 118 106 64 59 13 340 326 258 209 188 182 180 168 160 147 133 118 102 85 72 64 72 41 20 13 15 16 17
181 234 303 323 13 262 215 194 208 263 238 239 248 255 131 126 117 105 88 8 345 335 328 289 199 190 183 176 166 156 146 130 115 91 69 48 38 28 35 21 352 3 7 11
169 216 211 251 262 259 267 260 238 239 252 261 240 264 268 267 292 123 342 340 337 339 334 293 217 190 176 170 160 147 130 127 122 117 115 88 31 34 13 341 354 358 359 4
205 254 238 248 262 268 269 270 258 241 246 244 270 262 266 279 249 240 332 336 344 342 343 332 250 190 169 159 151 136 126 119 119 104 86 74 48 338 15 9 354 3 9 6
207 261 256 278 257 260 265 266 261 252 251 249 257 269 304 112 44 341 340 344 345 343 339 339 210 176 170 160 146 132 129 116 109 120 137 90 48 12 11 356 348 6 1 0
204 220 216 282 234 304 285 257 246 222 231 225 238 249 86 29 1 339 332 356 352 351 358 19 57 120 119 121 130 135 125 122 134 169 104 62 30 5 351 340 348 357 354 354
217 201 201 271 325 276 250 277 249 226 239 191 110 101 73 357 337 92 35 23 1 6 14 36 66 82 87 102 109 118 128 142 134 114 70 39 4 340 328 334 348 346 344 346
221 209 236 235 231 276 294 270 192 194 235 167 156 160 323 338 295 200 55 52 46 55 60 65 78 94 92 90 104 131 134 117 131 85 41 6 339 325 329 336 338 341 339 334
195 225 213 203 230 254 233 166 106 128 274 166 163 333 348 351 326 284 51 91 84 87 108 98 88 86 84 61 65 100 92 81 69 26 350 316 315 323 323 344 341 335 343 346
184 200 219 234 244 256 213 140 82 227 286 153 178 2 335 298 251 299 149 114 118 122 110 86 94 99 81 57 57 75 66 63 16 338 313 332 356 335 345 347 342 343 347 352
217 208 217 226 246 261 104 126 206 141 128 140 122 186 303 294 305 185 153 159 148 124 92 104 104 93 67 50 58 49 31 352 320 327 333 341 339 331 336 337 339 339 355 349
243 206 220 207 224 163 10 66 103 113 118 53 307 286 267 273 274 168 177 159 132 111 89 80 113 143 116 53 315 324 323 359 336 334 337 332 330 338 353 335 336 336 341 333
222 183 233 214 203 199 195 135 164 110 121 142 243 294 306 313 127 154 154 142 132 125 120 106 97 9 322 281 321 329 319 356 331 323 328 329 338 335 351 340 339 321 324 318
209 171 205 239 216 117 138 160 147 118 123 136 93 34 2 138 139 155 153 145 143 162 274 274 296 290 273 327 314 324 331 341 320 311 316 333 323 327 324 317 307 307 296 279
223 242 213 266 45 38 113 130 126 145 119 84 118 52 39 74 127 134 142 151 175 224 268 293 306 305 305 306 303 315 327 328 309 304 307 318 309 307 311 312 315 316 311 312